Погода в Калитвенской

Россия / Ростовская область     48°17′27″N   40°31′43″E
темп.,
°C
ветер,
м/с
пор.,
м/с
влажн.,
%
обл.,
%
осадки,
мм/ч
давл.,
гПа
погр.,
м
19 мая, ср
ср1900:00+14ююв3383100 0.0 100852
03:00+14ю2684100 0.0 1008159
06:00+14юв2588100 0.0 1009162
09:00+15ююв51091100 1.1 1008573
12:00+14юз71192100 12.8 1008677
15:00+16ююз6975100 15.6 10111088
18:00+16ююз611789 1.5 10101167
21:00+12ю5119295 1.8 1011393
20 мая, чт
чт2000:00+13ю71394100 0.4 1010775
03:00+13ю81591100 0.6 1010780
06:00+13ююз8149070 0.2 1010889
09:00+14юз8138063 0.3 10111150
12:00+18юз9126785 0.8 10121461
15:00+19зюз8116057 1.4 10121648
18:00+20зюз466247 0.0 1012756
21:00+14ююз467989 0.1 101494
21 мая, пт
пт2100:00+13юз22725 0.0 101415
03:00+12всв117946 0.0 101410
06:00+14в2481100 0.0 101594
09:00+19вюв696996 0.0 1014557
12:00+20юв61062100 0.0 1013559
15:00+23вюв71158100 0.1 1012652
18:00+22в6136294 0.0 1011438
21:00+19всв7156214 0.0 1011324
22 мая, сб
сб2200:00+17в5147538 0.0 1010288
03:00+15в412691 0.0 1009266
06:00+15в311745 0.0 1009299
09:00+21вюв6859100 0.0 1009560
12:00+25вюв5654100 0.0 1009829
15:00+28ююв2351100 0.0 10081157
18:00+26с2263100 0.0 100835
21:00+22ссв3372100 0.0 100829
23 мая, вс
вс2300:00+20св2274100 0.0 100715
03:00+19ююв0179100 0.0 100711
06:00+20з1180100 0.0 100817
09:00+23с2368100 0.0 1008352
12:00+27сз3355100 0.0 1007979
15:00+29зсз3446100 0.0 10061516
18:00+27з586157 0.0 1006421
21:00+21зюз41080100 0.0 1009186